This demonstration page uses our WeatherBlox Daily Observations layout. Learn more.

Left ArrowRight Arrow

Hourly Observations for June 20, 2015

Temp ( °F °C ) Dew Point ( °F °C ) Humidity (%) Winds ( mph kmh ) Pressure ( in mb ) Visibility ( mi km ) Precip ( " mm )
12:15 am 00:15 Clear 72 22 72 22 100 100 SW 5 7 30.03 1017 10 16 0.00 0.00
12:35 am 00:35 Clear 72 22 70 21 94 94 WSW 3 6 30.03 1017 10 16 0.00 0.00
12:55 am 00:55 Partly Cloudy 72 22 70 21 94 94 Calm 30.03 1017 10 16 0.00 0.00
1:15 am 01:15 Partly Cloudy 72 22 72 22 100 100 Calm 30.03 1017 10 16 0.00 0.00
1:35 am 01:35 Clear 70 21 70 21 100 100 WNW 5 7 30.03 1017 10 16 0.00 0.00
1:55 am 01:55 Clear 72 22 72 22 100 100 NW 7 11 30.03 1017 10 16 0.00 0.00
2:15 am 02:15 Clear 72 22 70 21 94 94 N 6 9 30.00 1016 10 16 0.00 0.00
2:35 am 02:35 Clear 72 22 70 21 94 94 W 7 11 30.00 1016 10 16 0.00 0.00
2:55 am 02:55 Clear 72 22 70 21 94 94 Calm 30.00 1016 10 16 0.00 0.00
3:15 am 03:15 Clear 72 22 70 21 94 94 SSW 6 9 30.00 1016 10 16 0.00 0.00
3:35 am 03:35 Clear 70 21 70 21 100 100 NW 6 9 30.00 1016 10 16 0.00 0.00
3:55 am 03:55 Clear 70 21 70 21 100 100 Calm 30.00 1016 10 16 0.00 0.00
4:15 am 04:15 Clear 70 21 70 21 100 100 Calm 30.00 1016 10 16 0.00 0.00
4:35 am 04:35 Mostly Cloudy 70 21 70 21 100 100 Calm 30.00 1016 10 16 0.00 0.00
4:55 am 04:55 Mostly Cloudy 70 21 70 21 100 100 WSW 3 6 30.00 1016 10 16 0.00 0.00
5:15 am 05:15 Mostly Cloudy 70 21 70 21 100 100 Calm 30.03 1017 10 16 0.00 0.00
5:35 am 05:35 Mostly Cloudy 70 21 70 21 100 100 Calm 30.03 1017 10 16 0.00 0.00
5:55 am 05:55 Partly Cloudy 70 21 70 21 100 100 Calm 30.03 1017 10 16 0.00 0.00
6:15 am 06:15 Partly Cloudy 70 21 70 21 100 100 Calm 30.03 1017 10 16 0.00 0.00
6:35 am 06:35 Mostly Cloudy 70 21 70 21 100 100 Calm 30.03 1017 10 16 0.00 0.00
6:55 am 06:55 Cloudy 70 21 70 21 100 100 Calm 30.03 1017 10 16 0.00 0.00
7:15 am 07:15 Cloudy 72 22 72 22 100 100 Calm 30.03 1017 10 16 0.00 0.00
7:35 am 07:35 Cloudy 72 22 72 22 100 100 WNW 6 9 30.03 1017 10 16 0.00 0.00
7:55 am 07:55 Cloudy 72 22 72 22 100 100 NW 5 7 30.03 1017 10 16 0.00 0.00
8:15 am 08:15 Mostly Cloudy 72 22 72 22 100 100 W 3 6 30.03 1017 10 16 0.00 0.00
8:35 am 08:35 Partly Cloudy 73 23 72 22 94 94 Calm 30.03 1017 10 16 0.00 0.00
8:55 am 08:55 Partly Cloudy 73 23 72 22 94 94 N 3 6 30.03 1017 10 16 0.00 0.00
9:15 am 09:15 Mostly Cloudy 73 23 72 22 94 94 NNE 5 7 30.03 1017 10 16 0.00 0.00
9:35 am 09:35 Cloudy 75 24 70 21 83 83 ENE 3 6 30.03 1017 10 16 0.00 0.00
9:55 am 09:55 Cloudy with Light Rain 75 24 72 22 89 89 NE 3 6 30.03 1017 10 16 0.00 0.00
10:15 am 10:15 Cloudy 77 25 72 22 83 83 SW 6 9 30.03 1017 10 16 0.00 0.00
10:35 am 10:35 Cloudy 77 25 72 22 83 83 Calm 30.03 1017 10 16 0.00 0.00
10:55 am 10:55 Cloudy 77 25 72 22 83 83 SSW 7 11 30.00 1016 10 16 0.00 0.00
11:15 am 11:15 Cloudy 77 25 72 22 83 83 SSW 9 15 30.00 1016 10 16 0.00 0.00
11:35 am 11:35 Partly Cloudy 79 26 72 22 79 79 SE 5 7 30.00 1016 10 16 0.00 0.00
11:55 am 11:55 Mostly Cloudy 81 27 72 22 74 74 SE 5 7 30.00 1016 10 16 0.00 0.00
12:15 pm 12:15 Mostly Cloudy 82 28 72 22 70 70 ESE 7 11 30.00 1016 10 16 0.00 0.00
12:35 pm 12:35 Partly Cloudy 82 28 73 23 74 74 SSE 6 9 30.00 1016 10 16 0.00 0.00
12:55 pm 12:55 Sunny 84 29 73 23 70 70 SSE 7 11 29.97 1015 10 16 0.00 0.00
1:15 pm 13:15 Sunny 86 30 73 23 66 66 S 8 13 29.94 1014 10 16 0.00 0.00
1:35 pm 13:35 Partly Cloudy 88 31 73 23 62 62 SE 6 9 29.94 1014 10 16 0.00 0.00
1:55 pm 13:55 Partly Cloudy 88 31 73 23 62 62 SSE 8 13 29.91 1013 10 16 0.00 0.00
2:15 pm 14:15 Partly Cloudy 90 32 73 23 59 59 SSW 12 19 29.91 1013 10 16 0.00 0.00
2:35 pm 14:35 Mostly Cloudy 90 32 73 23 59 59 S 13 20 29.91 1013 10 16 0.00 0.00
2:55 pm 14:55 Mostly Cloudy 90 32 73 23 59 59 SSE 8 13 29.91 1013 10 16 0.00 0.00
3:15 pm 15:15 Mostly Cloudy 88 31 73 23 62 62 S 7 11 29.91 1013 10 16 0.00 0.00
3:35 pm 15:35 Mostly Cloudy 88 31 75 24 66 66 S 7 11 29.88 1012 10 16 0.00 0.00
3:55 pm 15:55 Partly Cloudy 90 32 77 25 67 67 S 10 17 29.88 1012 10 16 0.00 0.00
4:15 pm 16:15 Partly Cloudy 90 32 77 25 67 67 SSE 10 17 29.88 1012 10 16 0.00 0.00
4:35 pm 16:35 Mostly Cloudy 90 32 75 24 63 63 SSE 9 15 29.85 1011 10 16 0.00 0.00
4:55 pm 16:55 Mostly Cloudy 90 32 77 25 67 67 SSE 10 17 29.83 1010 10 16 0.00 0.00
5:15 pm 17:15 Partly Cloudy 88 31 77 25 70 70 SSE 12 19 29.83 1010 10 16 0.00 0.00
5:35 pm 17:35 Partly Cloudy with Nearby Thunderstorms 88 31 77 25 70 70 SSE 12 19 29.80 1009 10 16 0.00 0.00
5:55 pm 17:55 Partly Cloudy 88 31 77 25 70 70 SSE 16 26 29.80 1009 10 16 0.00 0.00
6:15 pm 18:15 Mostly Cloudy with Rain 88 31 77 25 70 70 SSE 13 20 29.80 1009 10 16 0.00 0.00
6:35 pm 18:35 Mostly Cloudy with Thunderstorms 82 28 79 26 89 89 SSE 7 11 29.80 1009 7 11 0.21 5.33
6:55 pm 18:55 Partly Cloudy with Thunderstorms 82 28 79 26 89 89 SSE 12 19 29.80 1009 10 16 0.21 5.33
7:15 pm 19:15 Mostly Cloudy with Thunderstorms 82 28 79 26 89 89 SSE 10 17 29.83 1010 10 16 0.00 0.00
7:35 pm 19:35 Cloudy with Thunderstorms 81 27 77 25 89 89 SSE 5 7 29.83 1010 5 8 0.02 0.51
7:55 pm 19:55 Cloudy with Strong Thunderstorms 73 23 72 22 94 94 S 9 15 29.83 1010 1 2 0.63 16.00
8:15 pm 20:15 Cloudy with Thunderstorms 73 23 73 23 100 100 E 3 6 29.83 1010 10 16 0.00 0.00
8:35 pm 20:35 Cloudy 73 23 73 23 100 100 ESE 7 11 29.83 1010 10 16 0.00 0.00
8:55 pm 20:55 Mostly Cloudy with Heavy Rain 73 23 73 23 100 100 SSE 10 17 29.83 1010 5 8 0.03 0.76
9:15 pm 21:15 Mostly Cloudy with Nearby Thunderstorms 73 23 73 23 100 100 SE 8 13 29.83 1010 10 16 0.00 0.00
9:35 pm 21:35 Mostly Cloudy 72 22 72 22 100 100 SE 8 13 29.83 1010 10 16 0.01 0.25
9:55 pm 21:55 Mostly Cloudy with Nearby Thunderstorms 73 23 73 23 100 100 SSE 9 15 29.83 1010 10 16 0.01 0.25
10:15 pm 22:15 Cloudy 72 22 72 22 100 100 S 8 13 29.83 1010 10 16 0.00 0.00
10:35 pm 22:35 Cloudy with Rain 73 23 73 23 100 100 SE 8 13 29.80 1009 10 16 0.00 0.00
10:55 pm 22:55 Cloudy with Light Rain 73 23 73 23 100 100 SSE 9 15 29.80 1009 10 16 0.03 0.76

Powered by AerisWeather